Погода в Лондоко

Россия / Еврейская автономная область     49°00′54″N   131°59′43″E
темп.,
°C
ветер,
м/с
пор.,
м/с
влажн.,
%
обл.,
%
осадки,
мм/ч
давл.,
гПа
погр.,
м
14 апреля, ср
ср1401:00−5зсз5125615 0.0 10031283
04:00−6зсз5136648 0.0 10031348
07:00−6зсз5125913 0.0 10031257
10:00−3зсз61040100 0.0 10042131
13:00−2зсз6942100 0.1 10042391
16:000сз6931100 0.1 10042634
19:00−2зсз594210 0.0 10062087
22:00−6зсз24535 0.0 100891
15 апреля, чт
чт1501:00−7зсз11583 0.0 100912
04:00−8з11620 0.0 101111
07:00−8сз01600 0.0 101212
10:00+1з24314 0.0 1011771
13:00+6зсз36245 0.0 10102124
16:00+8з252237 0.0 10092288
19:00+6ююв363322 0.0 1010423
22:00+1в1151100 0.1 101325
16 апреля, пт
пт1601:00+1всв3861100 0.4 1011350
04:00+1в51257100 0.7 1010778
07:00−1в41072100 0.6 1009409
10:00+4в595217 0.8 1008624
13:00+9в61246100 0.0 10061407
16:00+8в4962100 0.1 1005788
19:00+7в51066100 0.5 1005580
22:00+5в31175100 1.4 1005588
17 апреля, сб
сб1701:00+3всв277923 0.0 1005217
04:000всв24918 0.0 100484
07:00+1св138678 0.0 100483
10:00+4ссв268199 0.3 1004645
13:00+7вюв1366100 0.3 1004973
16:00+7вюв236493 0.4 1004963
19:00+7вюв127063 0.1 1005431
22:00+2в1194100 0.1 100812
18 апреля, вс
вс1801:00+1с119636 0.0 100914
04:000зсз119293 0.0 100911
07:00+1зсз119210 0.0 101011
10:00+8зсз246013 0.0 1009912
13:00+10ссз354783 0.1 10081639
16:00+14ссв353580 0.1 10062216
19:00+12ссз353917 0.0 1007593
22:00+5ссв11725 0.0 100913